Location: Newark
(49.4900°N, 20.6656°E)
Time: 13:09:38
(UTC+00:00)

STARLINK-1751 - Visible Passes

Search period start: 16 January 2021 00:00
Search period end: 26 January 2021 00:00
Orbit: 386 x 393 km, 53.0° (Epoch: 15 January)

Date Brightness Start Highest point End Pass type
(mag) Time Alt. Az. Time Alt. Az. Time Alt. Az.
16 Jan 5.5 03:40:28 21° ENE 03:40:28 21° ENE 03:41:40 10° ENE visible
16 Jan 3.5 05:12:51 20° WNW 05:14:43 42° N 05:17:50 10° ENE visible
17 Jan 3.6 04:19:35 46° NNE 04:19:35 46° NNE 04:22:29 10° ENE visible
18 Jan 5.9 03:28:10 17° ENE 03:28:10 17° ENE 03:29:07 10° ENE visible
18 Jan 3.7 05:00:49 24° NW 05:02:27 44° N 05:05:44 10° ENE visible
19 Jan 3.9 04:11:23 42° NNE 04:11:23 42° NNE 04:14:21 10° ENE visible
19 Jan 3.3 05:44:24 10° WNW 05:47:50 68° NNE 05:51:19 10° ESE visible
20 Jan 5.8 03:23:51 19° ENE 03:23:51 19° ENE 03:24:59 10° ENE visible
20 Jan 3.5 04:56:45 25° WNW 04:58:34 55° NNE 05:02:04 10° E visible
21 Jan 3.7 04:11:14 49° N 04:11:14 49° N 04:14:46 10° E visible
21 Jan 3.4 05:44:36 10° WNW 05:48:11 70° SSW 05:51:48 10° SE visible
22 Jan 5.4 03:27:40 25° ENE 03:27:40 25° ENE 03:29:26 10° ENE visible
22 Jan 3.2 05:00:49 22° WNW 05:03:04 88° NNE 05:06:47 10° ESE visible
23 Jan 6.8 02:46:01 11° ENE 02:46:01 11° ENE 02:46:07 10° ENE visible
23 Jan 3.3 04:19:18 57° NW 04:19:55 72° NNE 04:23:40 10° ESE visible
24 Jan 4.5 03:39:45 43° ENE 03:39:45 43° ENE 03:42:31 10° E visible
24 Jan 4.0 05:13:11 16° W 05:15:55 43° SW 05:19:35 10° SE visible
25 Jan 6.1 03:02:10 19° E 03:02:10 19° E 03:03:22 10° E visible
25 Jan 3.6 04:35:43 36° W 04:36:59 55° SSW 04:40:49 10° SE visible
